Location: Peach Mountain Observatory
(42.3967°N, 83.9367°W)
Time: 21:03:07
(UTC-05:00)

Transit 4A - Pass Details

Date: 19 January 2020
Orbit: 872 x 973 km, 66.8° (Epoch: 26 February)

Event Time Altitude Azimuth Distance (km) Brightness Sun altitude
Rises 07:02:45 0° 169° (S) 3,564 11.4 -10.7°
Reaches altitude 10° 07:05:50 10° 155° (SSE) 2,607 10.9 -10.1°
Maximum altitude 07:10:19 22° 106° (ESE) 1,870 10.7 -9.4°
Drops below altitude 10° 07:14:44 10° 58° (ENE) 2,570 10.8 -8.6°
Sets 07:17:44 0° 44° (NE) 3,500 11.2 -8.1°
